EHI
0 0 0 0 0 0 0 0 0 0 0 1 2 2 1 0 0 0 0 0 0 0 0 0 0 0 0 0 0 0 0 0 0 0 0 0 0 0 0 0 0 0 0
0 0 0 0 0 0 0 0 0 0 0 0 1 1 0 0 0 0 0 0 0 0 0 0 0 0 0 0 0 0 0 0 0 0 0 0 0 0 0 0 0 0 0
0 0 0 0 0 0 0 0 0 0 0 0 0 0 0 0 0 0 0 0 0 0 0 0 0 0 0 0 0 0 0 0 0 0 0 0 0 0 0 0 0 0 0
0 0 0 0 0 0 0 0 0 0 0 0 0 0 0 0 0 0 0 0 0 0 0 0 0 0 0 0 0 0 0 0 0 0 0 0 0 0 0 0 0 0 0
0 0 0 0 0 0 0 0 0 0 0 0 0 0 0 0 0 0 0 0 0 0 0 0 0 0 0 0 0 0 0 0 0 0 0 0 0 0 0 0 0 0 0
0 0 0 0 0 0 0 0 0 0 0 0 0 0 0 0 0 0 0 0 0 0 0 0 0 0 0 0 0 0 0 0 0 0 0 0 0 0 0 0 0 0 0
0 0 0 0 0 0 0 0 0 0 0 0 0 0 0 0 0 0 0 0 0 0 0 0 0 0 0 0 0 0 0 0 0 0 0 0 0 0 0 0 0 0 0
0 0 0 0 0 0 0 0 0 0 0 0 0 0 0 0 0 0 0 0 0 0 0 0 0 0 0 0 0 0 0 0 0 0 0 0 0 0 0 0 0 0 0
0 0 0 0 0 0 0 0 0 0 0 0 0 0 0 0 0 0 0 0 0 0 0 0 0 0 0 0 0 0 0 0 0 0 0 0 0 0 0 0 0 0 0
0 0 0 0 0 0 0 0 0 0 0 0 0 0 0 0 0 0 0 0 0 0 0 0 0 0 0 0 0 0 0 0 0 0 0 0 0 0 0 0 0 0 0
0 0 0 0 0 0 0 0 0 0 0 0 0 0 0 0 0 0 0 0 0 0 0 0 0 0 0 0 0 0 0 0 0 0 0 0 0 0 0 0 0 0 0
0 0 0 0 0 0 0 0 0 0 0 0 0 0 0 0 0 0 0 0 0 0 0 0 0 0 0 0 0 0 0 0 0 0 0 0 0 0 0 0 0 0 0
0 0 0 0 0 0 0 0 0 0 0 0 0 0 0 0 0 0 0 0 0 0 0 0 0 0 0 0 0 0 0 0 0 0 0 0 0 0 0 0 0 0 0
0 0 0 0 0 0 0 0 0 0 0 0 0 0 0 0 0 0 0 0 0 0 0 0 0 0 0 0 0 0 0 0 0 0 0 0 0 0 0 0 0 0 0
0 0 0 0 0 0 0 0 0 0 0 0 0 0 0 0 0 0 0 0 0 0 0 0 0 0 0 0 0 0 0 0 0 0 0 0 0 0 0 0 0 0 0
0 0 0 0 0 0 0 0 0 0 0 0 0 0 0 0 0 0 0 0 0 0 0 0 0 0 0 0 0 0 0 0 0 0 0 0 0 0 0 0 0 0 0
0 0 0 0 0 0 0 0 0 0 0 0 0 0 0 0 0 0 0 0 0 0 0 0 0 0 0 0 0 0 0 0 0 0 0 0 0 0 0 0 0 0 0
0 0 0 0 0 0 0 0 0 0 0 0 0 0 0 0 0 0 0 0 0 0 0 0 0 0 0 0 0 0 0 0 0 0 0 0 0 0 0 0 0 0 0
0 0 0 0 0 0 0 0 0 0 0 0 0 0 0 0 0 0 0 0 0 0 0 0 0 0 0 0 0 0 0 0 0 0 0 0 0 0 0 0 0 0 0
0 0 0 0 0 0 0 0 0 0 0 0 0 0 0 0 0 0 0 0 0 0 0 0 0 0 0 0 0 0 0 0 0 0 0 0 0 0 0 0 0 0 0
0 0 0 0 0 0 0 0 0 0 0 0 0 0 0 0 0 0 0 0 0 0 0 0 0 0 0 0 0 0 0 0 0 0 0 0 0 0 0 0 0 0 0
0 0 0 0 0 0 0 0 0 0 0 0 0 0 0 0 0 0 0 0 0 0 0 0 0 0 0 0 0 0 0 0 0 0 0 0 0 0 0 0 0 0 0
0 0 0 0 0 0 0 0 0 0 0 0 0 0 0 0 0 0 0 0 0 0 0 0 0 0 0 0 0 0 0 0 0 0 0 0 0 0 0 0 0 0 0
0 0 0 0 0 0 0 0 0 0 0 0 0 0 0 0 0 0 0 0 0 0 0 0 0 0 0 0 0 0 0 0 0 0 0 0 0 0 0 0 0 0 0
0 0 0 0 0 0 0 0 0 0 0 0 0 0 0 0 0 0 0 0 0 0 0 0 0 0 0 0 0 0 0 0 0 0 0 0 0 0 0 0 0 0 0
0 0 0 0 0 0 0 0 0 0 0 0 0 0 0 0 0 0 0 0 0 0 0 0 0 0 0 0 0 0 0 0 0 0 0 0 0 0 0 0 0 0 0
Wind_Speed
3 3 3 3 3 3 4 5 6 6 7 8 8 8 7 7 7 7 6 6 6 5 5 5 4 4 3 2 2 3 3 4 4 1 1 2 2 3 2 2 2 2 3
3 3 2 2 3 3 4 5 5 6 6 7 8 7 7 7 7 7 7 7 7 7 6 6 5 3 3 3 2 3 3 3 3 3 2 2 2 2 3 2 2 1 2
4 3 3 2 3 3 4 4 4 5 6 6 7 8 8 7 7 6 7 7 6 6 6 6 6 5 5 3 3 3 2 2 2 2 2 2 2 2 2 2 2 1 2
4 4 4 3 3 3 3 3 4 5 5 6 6 6 7 7 7 6 6 6 5 5 4 4 4 4 4 4 3 3 3 3 3 2 2 2 2 2 3 3 2 2 1
4 4 4 4 2 2 3 3 4 4 5 6 6 6 6 6 6 7 7 6 6 5 4 4 3 3 3 2 2 3 4 3 3 3 3 3 3 3 4 3 3 3 2
5 4 4 3 2 3 3 4 4 4 5 5 6 6 6 4 8 9 7 7 6 6 5 4 4 4 5 4 3 3 2 3 4 3 3 4 4 4 4 4 4 4 3
5 5 4 3 3 2 3 4 4 5 5 5 5 6 6 7 11 11 9 7 6 6 6 5 4 4 5 4 4 4 3 1 2 3 4 4 4 5 5 5 5 3 2
6 5 4 3 3 2 3 4 4 4 5 5 5 6 6 7 10 11 10 6 5 5 5 5 5 5 4 5 4 3 2 2 1 2 2 2 2 3 5 4 4 4 3
6 5 4 4 3 3 3 4 4 4 4 4 5 6 6 8 10 11 10 6 5 5 5 5 5 5 7 7 5 4 3 3 3 2 2 2 2 3 4 4 5 4 3
7 6 5 4 4 3 3 3 3 4 4 4 4 5 6 7 10 11 10 5 6 5 4 5 6 6 8 8 6 5 5 4 4 4 4 4 4 5 5 3 4 3 2
6 5 4 4 3 3 2 3 3 3 4 4 4 4 5 6 9 11 11 5 5 5 5 4 5 9 9 9 7 5 5 4 4 4 3 3 3 3 2 2 1 1 2
5 4 4 3 2 2 3 3 4 4 4 4 4 4 4 5 7 9 11 9 7 5 5 4 5 10 10 9 7 6 8 6 3 3 3 3 3 3 2 2 2 2 2
5 4 3 2 2 2 3 4 4 4 4 4 4 4 4 4 5 10 11 11 10 5 4 6 7 9 9 7 8 9 8 5 4 4 4 3 2 3 3 3 3 3 3
5 4 3 2 2 2 2 3 3 4 4 4 4 4 4 4 4 5 6 6 8 6 5 7 9 9 6 6 7 7 5 5 5 4 4 3 3 4 3 3 3 3 2
4 4 3 2 2 1 2 2 4 4 4 4 4 4 5 5 7 9 6 5 6 5 5 4 5 5 5 5 5 5 5 5 5 4 4 4 4 4 4 4 3 3 3
4 4 3 2 2 1 1 1 2 3 4 5 5 4 4 5 7 10 11 10 10 11 7 5 6 6 6 6 6 6 6 6 5 5 5 5 5 5 5 4 4 4 4
4 3 3 2 2 1 1 1 1 1 3 4 5 6 5 6 7 9 10 11 12 12 6 5 6 6 6 6 6 6 6 6 5 5 5 5 5 5 5 5 5 5 5
4 3 3 2 2 2 2 1 1 1 1 1 3 5 6 6 7 8 9 8 7 8 5 5 5 5 5 5 5 5 5 5 5 6 6 6 6 6 6 6 6 7 6
4 3 2 2 2 2 1 1 1 2 1 1 1 2 4 5 6 7 7 4 5 5 5 5 5 5 5 5 5 5 5 5 6 6 6 6 6 6 6 6 6 9 8
3 4 3 2 2 2 1 1 1 1 1 2 2 1 1 2 2 3 4 3 3 4 4 5 5 5 5 5 5 5 5 5 6 6 6 6 6 7 7 8 7 7 7
3 3 3 2 2 2 2 2 2 2 2 2 2 2 3 2 3 3 3 3 3 4 4 4 4 4 5 4 5 5 6 6 5 6 6 6 6 6 6 7 7 7 7
3 3 2 2 2 2 2 2 1 1 2 2 1 1 3 2 2 2 3 3 3 3 3 3 3 3 3 4 5 5 6 6 6 6 6 6 6 6 6 6 7 7 7
3 3 2 2 2 3 2 2 2 2 2 2 1 1 1 1 2 2 2 2 2 2 2 2 3 3 3 3 4 4 5 5 5 6 6 6 6 6 7 7 8 8 8
3 3 3 2 2 2 2 2 2 2 2 1 1 1 1 1 1 2 2 2 2 2 2 2 3 4 4 4 3 4 4 4 4 5 7 6 6 6 7 7 8 9 8
2 2 2 2 2 2 2 2 2 2 2 2 2 2 2 1 2 2 2 1 2 2 2 3 2 3 4 5 4 4 6 8 7 5 5 6 7 7 7 8 7 8 8
2 2 2 2 2 2 2 2 2 2 2 2 2 2 2 2 2 2 2 2 2 2 2 3 3 4 4 4 5 6 8 9 10 10 7 6 7 7 7 7 9 8 9
Wind_Direction
294 279 263 250 239 226 220 217 210 200 191 187 181 177 176 174 171 167 167 169 174 170 171 176 174 173 180 186 194 211 224 234 242 187 132 149 170 164 144 117 93 87 90
318 297 279 255 231 227 222 213 202 194 186 180 174 172 170 172 173 168 165 172 175 172 171 171 170 170 182 186 193 204 213 221 229 215 167 159 170 166 149 132 102 75 81
324 310 292 264 234 222 221 210 195 184 176 174 169 169 169 170 169 169 169 171 175 175 174 176 173 178 184 183 189 193 196 205 224 202 168 150 150 158 150 132 128 105 79
320 308 292 277 255 235 215 201 188 177 168 167 167 165 164 165 163 158 160 162 164 162 165 168 171 182 184 182 185 188 188 192 191 186 171 164 158 159 174 171 166 155 132
315 304 295 294 276 237 205 189 178 171 164 161 160 158 158 158 160 159 159 160 157 152 149 155 161 157 160 181 187 184 189 195 190 188 182 173 173 175 188 176 172 155 150
307 298 293 285 269 230 200 180 171 170 164 159 163 161 158 159 159 163 157 155 156 159 159 160 155 160 165 171 174 182 208 210 199 195 199 200 195 189 172 172 164 170 180
310 303 293 275 256 230 199 184 177 173 167 165 164 165 166 161 164 165 163 157 161 166 169 166 162 164 171 167 158 157 166 202 245 229 220 214 198 182 174 178 182 188 165
314 309 301 285 263 229 202 193 188 178 175 172 169 169 166 166 167 167 162 160 161 166 170 172 170 173 175 171 165 160 153 142 165 220 229 219 204 181 181 176 159 137 110
315 311 302 286 264 235 215 202 195 185 179 177 174 173 172 169 171 170 168 159 162 164 166 176 179 183 173 176 175 169 163 142 108 99 83 102 123 153 159 146 154 166 168
318 312 303 287 265 247 228 209 198 189 184 175 174 179 177 175 176 179 179 167 169 166 171 179 192 193 180 185 190 184 185 169 153 140 130 124 131 138 156 174 174 179 160
313 306 298 285 266 248 226 203 191 185 179 176 174 179 185 184 182 188 189 181 176 172 178 185 188 191 193 194 200 199 188 170 164 159 152 148 143 137 141 137 141 165 171
313 309 303 292 271 231 204 189 185 182 179 179 179 180 188 187 193 194 197 197 188 183 187 189 185 189 197 196 198 190 180 176 171 171 177 177 169 154 131 109 91 78 64
315 315 312 301 276 229 204 186 182 186 187 186 188 190 190 190 195 201 203 200 197 193 188 187 186 191 196 198 198 193 185 188 185 189 192 187 170 144 136 127 117 105 92
316 319 320 310 288 241 213 197 195 194 194 195 196 196 191 193 195 192 194 193 196 195 181 185 190 193 195 195 193 196 195 197 200 205 195 174 158 159 171 169 169 166 166
321 323 319 311 293 268 240 223 216 217 216 206 201 196 193 204 206 197 187 185 181 178 162 166 178 182 192 194 197 197 194 194 203 204 194 185 181 181 182 176 180 184 198
322 324 322 320 316 298 266 261 248 239 233 230 223 211 216 219 201 202 203 197 187 176 170 183 191 196 200 200 201 201 201 203 203 199 200 198 194 192 188 183 190 201 211
319 321 320 315 309 300 283 258 261 253 229 226 220 219 219 210 205 204 203 198 192 182 186 194 199 202 204 204 206 207 207 202 195 198 202 201 199 197 195 195 197 204 213
322 323 319 315 309 301 292 277 257 240 232 247 233 228 224 215 206 202 199 189 194 191 195 199 202 203 204 206 208 209 208 200 196 201 204 203 200 200 202 205 204 207 210
323 325 323 318 313 307 301 289 272 259 249 247 254 234 224 216 202 199 192 198 199 200 202 205 206 204 203 205 207 207 206 205 202 201 204 203 203 204 209 211 211 211 212
320 328 326 318 315 312 303 290 279 267 252 237 235 233 206 193 190 189 194 201 209 212 211 212 210 207 205 204 204 204 206 209 206 207 208 205 205 207 212 213 213 211 212
317 319 320 311 304 299 293 284 277 270 260 250 248 238 223 214 208 202 201 205 212 218 219 218 215 211 208 204 204 206 208 211 210 208 207 206 205 208 212 213 214 215 216
311 311 315 312 310 306 305 296 284 274 269 268 277 259 232 227 217 218 217 216 221 220 218 219 218 215 212 208 207 208 212 213 210 208 209 208 207 209 209 210 211 212 213
305 307 310 313 314 314 312 307 303 295 289 285 276 267 253 240 234 234 233 229 228 226 222 222 228 226 221 217 214 213 217 218 213 208 208 209 209 210 210 212 212 212 214
304 306 308 310 312 311 313 315 316 313 307 301 294 281 271 263 257 254 255 252 242 234 228 228 233 234 228 223 220 220 224 225 216 214 211 213 212 211 210 212 214 215 217
302 303 303 304 304 304 307 311 312 309 306 303 299 295 291 284 278 277 272 268 263 256 251 246 242 241 238 236 234 232 233 230 225 220 214 217 218 216 215 215 215 215 216
295 297 298 297 294 295 295 295 297 299 296 295 294 291 287 281 279 279 278 274 270 264 258 252 250 250 251 246 246 248 247 243 237 230 223 221 221 220 217 220 218 219 219